Theta_e
311 311 311 311 311 312 312 312 311 311 311 311 311 311 310 311 311 311 311 311 311 312 312 312 312 312 313 313 313 313 312 305 304 303 302 303 316 318 322 324 327 328 327 312 306 306 305 300 301 302 302 302 300 301 303 305 304 302 293 289 287 288 290 293 294 296 296 297 299 300 300 300 300 323 329 333 330 330 331 331 335 338 337 340 342 344 345 345
312 311 311 311 311 311 311 311 312 311 311 310 310 310 310 310 310 310 311 312 313 312 312 312 312 312 313 312 313 313 309 305 302 302 302 313 322 322 323 323 325 326 325 306 302 301 303 298 298 301 299 297 303 299 305 300 306 297 291 289 289 289 292 299 298 299 297 298 300 300 300 301 303 311 320 325 325 327 327 329 333 333 336 340 342 343 343 343
312 312 312 311 311 311 311 311 311 311 310 310 310 310 310 310 311 311 310 311 313 313 313 312 312 312 312 312 312 313 307 302 302 299 303 321 320 322 324 325 326 330 313 303 301 301 304 303 301 300 297 296 299 299 303 299 303 298 294 288 291 294 295 298 299 299 300 300 300 300 301 301 302 305 322 324 324 327 324 326 329 331 332 335 339 341 341 341
312 312 312 311 311 310 310 310 311 310 310 310 310 310 310 310 310 310 310 311 311 312 312 312 312 312 312 312 313 310 304 300 295 299 304 321 322 321 322 325 327 329 313 301 301 301 301 300 299 300 298 296 298 302 299 300 301 296 295 292 292 295 296 298 299 300 300 302 300 300 300 300 302 304 326 326 323 324 326 330 330 330 332 335 338 339 340 339
312 312 311 312 311 311 311 310 310 310 310 310 310 309 310 310 311 311 310 310 311 311 311 312 311 311 311 312 311 307 300 286 291 302 306 332 329 324 324 323 329 322 307 301 301 300 299 298 299 299 298 294 298 300 298 300 302 298 294 297 296 297 296 300 300 301 299 301 300 299 299 299 301 312 325 325 319 320 326 331 334 335 336 336 337 338 340 338
312 312 311 311 311 311 311 310 310 310 310 309 309 310 310 310 310 311 310 310 310 311 311 311 311 311 311 311 308 304 298 283 296 304 333 332 332 327 326 326 332 313 302 300 298 298 298 297 296 295 294 295 295 295 295 301 302 293 296 296 297 298 297 300 301 300 300 299 298 299 301 301 300 308 319 315 322 325 333 335 336 337 338 339 340 339 338 337
312 312 312 311 311 311 311 310 310 310 310 309 309 309 309 310 310 311 311 311 311 311 310 310 311 311 311 310 305 302 297 298 303 308 327 331 333 329 328 329 328 302 300 299 298 296 296 295 297 295 296 295 296 296 299 300 300 297 295 297 298 299 298 301 300 300 299 299 300 301 301 299 299 305 317 318 326 333 336 337 337 338 339 340 337 338 337 336
311 312 311 311 311 311 311 310 310 310 309 309 309 309 309 310 310 311 311 310 310 311 311 310 310 310 310 303 299 297 297 295 301 307 329 332 328 329 328 317 309 302 300 299 297 295 295 294 294 297 295 294 295 297 300 298 298 296 296 298 298 298 298 300 299 298 299 300 300 300 299 298 305 314 321 323 331 334 336 337 337 338 338 338 337 336 336 336
311 311 311 311 311 311 311 310 310 309 309 309 309 309 309 310 310 310 310 310 309 310 310 310 310 310 310 303 297 291 291 303 306 309 317 317 318 314 309 306 303 302 300 300 298 297 296 294 295 297 293 295 299 297 298 296 292 296 297 299 299 299 300 299 298 298 299 301 303 300 297 298 313 323 319 323 329 334 336 336 336 337 336 336 336 335 335 334
311 311 311 311 311 311 311 310 310 309 310 309 310 309 309 310 310 309 309 309 309 309 309 310 309 310 305 300 297 288 296 305 308 309 309 311 313 308 306 306 302 302 300 300 299 297 295 295 297 298 299 297 298 296 299 296 292 296 297 298 299 300 300 300 298 299 298 301 299 299 296 298 303 313 311 323 329 333 334 333 335 335 334 335 335 335 335 334
311 311 310 311 311 311 311 311 310 309 310 309 309 309 309 309 310 309 309 309 310 310 310 309 309 307 300 299 293 289 304 308 308 308 307 307 307 306 304 306 303 302 301 300 299 300 299 298 299 300 299 294 298 295 297 297 300 298 298 296 296 297 298 299 299 298 298 300 298 298 297 297 298 315 316 321 328 332 331 331 332 333 333 334 334 334 334 334
311 311 311 311 311 310 311 310 310 310 310 310 309 309 309 309 309 309 309 309 309 309 309 309 309 305 301 297 294 294 307 307 307 306 306 306 305 306 308 307 304 303 301 298 298 300 300 300 301 301 291 298 292 297 297 300 298 298 297 293 293 294 295 297 296 297 298 298 300 299 297 295 295 307 319 322 327 330 330 330 331 332 333 332 333 333 333 333
311 311 311 311 310 310 310 310 310 310 310 309 309 309 309 309 309 309 310 309 310 309 309 309 308 304 299 290 294 303 306 306 305 306 306 306 306 307 306 308 306 304 302 299 298 300 301 300 300 296 298 296 294 292 296 299 297 298 297 292 292 291 290 295 297 297 297 299 299 299 288 288 292 302 320 322 323 328 328 328 330 331 330 331 332 332 333 334
311 310 310 310 310 310 310 310 310 310 310 310 309 309 308 308 309 309 309 309 310 310 309 309 306 303 296 291 299 304 306 306 306 303 301 303 301 301 302 304 309 305 304 301 301 300 301 300 299 298 300 295 293 298 297 295 297 291 293 293 287 288 285 293 298 295 295 298 298 299 289 287 292 299 320 321 323 325 324 327 328 328 329 331 331 331 330 330
311 310 310 310 310 310 310 310 310 310 310 310 309 309 309 308 309 309 310 309 309 308 308 308 304 298 293 294 303 306 311 309 304 303 304 300 298 298 299 303 306 305 304 303 301 301 302 301 299 296 293 298 298 295 291 290 291 292 288 284 286 286 285 291 295 296 295 298 298 297 290 290 293 304 320 320 321 322 322 324 324 326 329 329 329 328 328 328
309 310 311 310 310 309 309 310 310 310 309 309 309 308 308 308 309 309 309 309 309 308 307 301 299 297 292 288 294 310 303 301 301 306 306 304 300 297 300 300 302 305 305 304 305 306 302 300 295 294 295 296 293 289 287 286 285 288 288 283 287 286 286 290 294 296 297 297 298 297 287 290 293 299 318 319 318 320 321 321 323 326 327 327 327 327 327 328
307 309 310 310 309 309 309 309 310 310 309 309 309 308 308 308 309 309 309 309 307 308 305 297 299 299 286 297 305 297 297 300 304 305 304 304 301 300 299 300 299 302 306 307 306 306 303 299 298 296 296 291 289 290 284 281 281 283 286 284 286 287 286 286 290 294 295 296 293 295 292 291 292 299 313 317 318 319 318 319 323 325 326 325 325 326 327 328
308 307 309 309 309 309 309 309 309 309 309 309 309 307 305 308 309 308 307 306 306 304 303 303 299 293 290 298 290 293 300 300 302 302 304 302 302 300 299 298 298 301 304 303 304 299 301 296 296 288 291 291 289 286 283 280 283 282 284 286 285 288 288 289 289 291 295 295 294 293 292 294 293 297 311 315 317 318 317 319 322 323 323 323 324 326 326 325
306 307 307 308 308 308 308 308 308 308 309 309 308 308 308 308 306 304 301 300 297 291 285 288 290 280 283 293 298 299 300 303 304 303 301 302 301 301 300 301 299 296 297 296 295 298 297 296 296 288 287 287 288 288 286 286 288 288 288 286 286 285 286 286 292 293 295 292 293 291 291 294 294 295 306 314 317 316 316 319 320 321 322 323 323 323 323 323
307 307 307 308 308 308 308 308 308 308 308 304 300 300 296 291 293 292 298 298 293 293 290 293 294 293 293 292 295 301 305 305 299 300 302 303 300 298 297 298 296 295 293 292 292 295 296 289 287 288 288 288 289 289 290 291 291 291 290 289 288 288 289 292 293 294 295 293 292 291 293 292 294 299 309 313 316 316 317 318 319 320 320 322 323 323 324 324
306 306 307 307 307 307 307 307 307 307 308 303 299 295 287 287 286 286 293 294 296 297 294 294 295 293 292 295 297 297 294 296 301 299 302 305 300 297 293 294 291 289 288 293 292 298 296 288 288 289 289 289 290 290 291 290 291 291 289 288 287 288 287 292 292 294 296 294 291 291 293 304 306 306 312 316 316 314 316 317 318 320 322 323 324 323 324 324
305 306 306 306 307 307 307 306 307 307 308 302 299 294 294 294 296 298 294 287 294 296 296 295 297 294 298 297 299 300 298 293 295 298 302 303 298 294 292 292 288 286 289 291 292 291 289 287 289 291 291 291 291 291 292 291 290 290 287 286 286 287 290 292 294 294 296 294 290 291 304 308 310 313 314 315 315 317 319 320 321 322 322 322 321 321 322 322
304 304 305 305 307 306 306 307 306 306 301 298 296 296 294 298 301 301 299 293 290 296 295 295 293 293 294 298 299 301 292 291 290 296 298 301 295 295 293 290 287 287 288 290 288 287 285 288 291 294 292 291 290 291 291 291 291 288 287 285 285 289 288 283 289 293 295 294 289 304 307 308 312 314 315 317 318 319 322 323 323 324 322 321 321 321 320 320
304 304 305 305 306 306 306 305 306 303 299 299 298 297 301 301 301 301 294 287 287 292 295 296 296 295 294 294 299 297 292 292 293 293 301 300 294 296 293 291 288 287 286 288 290 288 287 291 295 294 293 292 290 290 290 289 287 289 289 287 287 288 288 289 286 292 295 295 308 307 303 301 309 309 311 316 319 318 318 318 318 318 319 320 320 320 320 319
303 304 304 305 305 306 305 305 299 298 299 299 298 301 302 302 301 301 292 289 289 289 298 296 298 297 298 304 303 294 294 294 294 298 300 300 295 293 291 294 290 287 288 289 289 289 290 294 296 294 293 292 292 289 290 289 286 287 289 290 290 291 289 291 291 291 289 289 303 301 286 291 304 310 310 313 315 314 316 315 315 316 316 317 316 317 318 319
304 304 304 304 305 305 306 297 296 298 297 295 298 302 302 302 303 302 293 284 278 286 291 285 299 292 304 296 299 296 296 289 297 298 300 300 302 295 293 290 291 286 288 289 289 290 291 295 295 293 293 292 291 290 291 290 287 284 286 291 292 292 291 291 291 290 283 284 292 300 292 288 302 306 309 311 311 310 313 313 313 314 314 315 315 316 316 317
304 304 304 304 305 305 297 291 299 298 292 294 301 302 302 303 305 301 288 279 274 286 284 292 292 293 301 298 297 296 280 285 297 298 298 303 297 300 290 286 290 291 292 294 290 287 294 294 294 294 293 291 290 289 292 291 287 285 290 291 292 291 290 290 291 290 285 291 295 296 299 294 294 304 310 310 308 308 308 310 311 312 313 313 314 315 316 316
304 304 304 304 305 304 297 299 297 294 295 300 303 302 302 302 304 301 284 271 267 289 284 289 293 303 300 299 298 290 290 294 290 294 298 301 299 295 292 287 288 288 291 291 282 291 293 291 293 292 292 291 290 292 293 292 289 288 291 292 291 292 291 292 291 288 289 288 283 292 300 292 293 302 310 309 305 305 306 307 309 310 312 313 313 315 315 316
302 303 303 303 304 305 304 299 298 294 300 302 301 301 302 302 299 288 276 268 285 285 300 287 302 298 296 298 294 293 292 295 288 294 299 300 300 295 288 288 289 289 292 291 285 290 294 294 295 295 292 290 292 293 294 293 289 291 293 294 293 293 292 292 289 289 289 285 280 289 296 286 287 300 303 307 306 304 305 306 308 310 311 312 312 314 315 315
303 303 303 303 302 301 299 301 297 301 303 303 302 302 302 300 292 279 274 268 292 280 290 291 291 288 293 290 290 292 289 292 293 295 296 294 295 296 294 295 290 289 288 292 291 292 295 299 299 295 293 294 294 294 295 294 293 292 294 292 291 290 290 290 290 287 284 280 283 291 294 292 286 298 302 300 303 306 306 306 308 309 310 311 313 313 314 314
302 303 303 303 297 299 300 294 297 303 305 303 301 301 299 293 281 274 270 279 290 287 290 288 287 293 289 287 285 290 290 290 291 292 290 295 291 292 291 289 292 287 286 286 289 292 293 295 294 295 298 297 296 293 294 295 295 293 290 289 288 285 286 288 284 285 280 276 282 290 293 295 286 292 303 304 306 309 307 305 306 307 309 310 311 312 313 313
302 303 303 302 302 303 295 294 301 305 304 302 299 295 291 278 280 273 274 293 278 284 284 283 289 289 288 289 287 287 286 288 290 290 288 288 286 286 287 283 285 277 279 282 282 289 289 291 294 295 300 296 293 291 291 293 293 291 289 287 283 277 280 276 282 278 276 278 282 289 293 290 289 295 301 304 306 309 310 308 307 308 309 310 311 311 312 312
303 303 304 303 303 299 299 301 304 304 303 300 296 293 282 274 269 277 279 284 279 289 288 290 287 288 288 286 285 287 289 284 289 289 290 290 286 287 289 287 287 283 276 283 282 284 286 292 292 293 294 298 295 288 285 287 289 288 287 283 280 277 277 272 275 274 277 282 287 290 291 290 297 300 305 304 307 309 309 309 309 309 309 309 310 310 311 311
303 303 299 302 301 301 302 303 304 305 302 299 293 287 281 274 273 286 281 284 285 294 294 290 289 288 288 283 285 288 283 288 287 287 289 287 286 284 287 289 288 286 286 284 283 283 279 282 288 291 288 296 294 293 290 287 286 288 289 287 283 280 278 273 276 275 277 277 284 292 288 283 292 294 305 306 307 308 308 308 309 309 309 309 310 310 310 309
303 301 299 299 299 301 302 303 304 304 301 294 288 282 275 275 281 282 283 287 290 292 289 294 288 286 284 285 288 289 287 283 288 287 286 286 284 284 285 287 288 288 287 281 285 282 285 284 288 294 293 296 293 295 294 291 288 287 290 289 283 285 282 279 278 278 279 279 281 284 287 293 294 302 305 306 306 306 307 306 307 306 307 308 307 307 308 308
300 296 298 295 297 298 301 305 303 301 297 291 284 279 276 280 278 285 284 291 290 287 289 291 291 283 282 282 286 286 290 284 286 286 284 286 287 285 288 288 288 289 285 281 283 281 285 283 291 294 295 294 295 295 294 295 283 287 289 285 288 291 288 281 280 283 277 280 278 289 293 295 301 302 303 304 304 304 305 305 305 305 306 306 306 307 307 307
293 296 292 295 297 300 305 305 303 300 295 289 282 277 283 284 287 287 290 288 289 290 289 282 283 281 279 279 281 285 286 287 285 284 279 287 284 288 288 289 291 290 289 288 285 287 281 280 290 291 292 294 296 296 294 296 292 288 285 288 290 293 291 284 277 280 276 276 280 291 289 290 292 287 301 301 300 302 303 304 304 305 306 305 305 305 306 306
294 294 295 294 297 302 306 304 301 298 293 287 280 283 288 283 291 289 292 291 291 290 287 285 286 290 281 280 280 284 286 283 282 284 280 285 281 292 289 289 292 291 292 291 287 288 289 282 287 292 293 295 296 294 292 295 294 291 290 292 289 281 284 283 281 275 274 275 282 288 292 291 291 290 297 297 298 300 301 303 303 303 304 304 304 304 305 306
294 292 287 295 301 305 306 304 300 295 288 283 281 280 286 287 291 290 292 292 292 290 287 290 286 290 288 280 282 285 285 280 283 282 281 283 280 290 290 291 290 293 292 291 287 286 291 281 283 291 292 294 293 292 283 288 292 293 294 290 292 289 286 281 281 280 280 275 283 285 290 286 295 295 299 299 300 301 301 302 302 303 304 303 303 303 304 304
290 288 287 300 303 306 305 301 294 291 286 280 282 282 288 285 289 292 293 292 289 290 290 290 292 285 289 289 290 281 285 284 283 282 283 284 283 291 290 293 290 291 293 292 289 293 284 287 281 287 292 293 287 290 287 288 286 287 287 285 288 289 289 287 286 283 279 277 281 284 283 287 293 300 301 301 301 302 302 301 302 303 303 303 303 303 304 304
295 288 289 303 304 302 299 295 289 285 283 285 287 286 287 286 290 291 292 294 292 296 292 290 288 285 288 286 286 292 284 284 284 282 284 284 285 279 291 292 293 290 293 291 289 290 285 285 283 285 288 287 286 291 292 291 291 287 286 284 284 284 284 281 278 284 285 283 282 283 281 287 297 304 303 302 303 303 303 303 303 303 302 302 303 303 304 304
290 283 289 302 304 298 294 286 286 289 285 283 283 286 285 292 289 291 292 293 293 292 296 293 292 290 288 289 291 290 288 282 284 284 285 282 287 286 290 294 294 293 290 286 287 291 289 286 286 285 284 286 290 293 295 294 293 289 290 287 287 285 285 280 277 279 282 284 290 286 285 287 301 303 304 304 304 304 304 303 301 301 301 302 302 303 304 304
288 284 297 304 304 296 290 284 287 285 284 288 291 290 292 290 289 291 290 292 290 294 294 293 292 292 294 293 293 290 291 287 285 283 285 286 287 290 291 293 294 293 292 286 290 290 307 285 284 286 287 290 292 294 295 294 293 290 291 289 288 285 286 284 279 280 281 282 282 281 284 289 300 305 304 304 304 304 303 301 300 300 301 302 302 302 303 303
292 290 293 302 303 301 289 280 282 282 286 289 289 289 292 291 290 289 290 292 291 292 294 293 294 296 292 296 293 290 293 281 290 285 284 288 286 293 292 292 294 292 290 287 287 294 287 286 286 281 281 282 284 288 287 290 292 287 286 289 289 288 289 288 287 285 283 283 286 283 281 287 298 305 304 303 302 300 300 301 301 299 300 301 302 302 302 303
291 293 293 295 303 298 286 289 287 284 287 287 288 287 289 290 293 293 292 290 293 292 292 291 292 293 293 295 293 293 294 290 286 291 289 290 290 294 293 292 295 292 294 295 305 296 287 284 284 279 276 275 275 277 279 280 284 286 290 289 290 290 289 288 283 283 281 286 287 284 285 292 298 301 300 300 299 299 300 300 301 301 300 301 301 302 302 302
289 281 288 292 297 296 292 294 291 288 286 286 285 287 289 288 292 294 295 293 295 294 293 293 292 293 293 292 290 292 292 295 290 289 291 290 293 294 294 293 294 293 300 307 304 296 288 290 286 282 281 280 281 284 289 286 285 284 287 290 291 291 290 288 284 283 281 283 283 289 291 291 293 296 297 297 298 297 297 298 299 299 300 301 301 301 301 301
292 283 284 284 291 291 289 291 290 291 285 290 283 289 287 288 291 292 300 291 296 295 294 294 293 291 290 290 287 289 292 292 294 292 291 293 294 294 295 294 294 298 309 306 304 293 288 285 289 287 287 286 289 292 295 291 287 287 286 288 288 290 291 288 284 283 286 287 282 292 294 292 292 295 296 296 297 297 298 298 299 299 300 300 301 301 301 300
285 288 292 293 287 282 284 286 290 288 290 290 285 289 286 287 289 286 293 295 295 296 290 293 294 293 291 289 290 284 289 289 289 286 295 296 295 294 294 299 293 301 309 300 301 294 289 284 289 292 292 296 296 295 296 295 293 291 290 287 289 294 290 287 287 289 290 284 284 292 295 292 294 296 297 297 297 297 297 298 299 300 301 301 300 299 299 299
293 293 293 297 286 287 287 289 292 289 288 289 287 289 286 286 285 290 290 291 292 290 294 283 289 293 293 294 290 286 288 282 283 290 293 294 294 292 291 293 297 300 300 296 295 292 289 284 292 294 293 294 294 294 296 294 292 294 293 293 293 293 291 292 291 292 290 286 293 294 294 293 296 296 297 298 299 299 299 300 300 300 300 300 299 298 298 298
291 290 287 294 294 291 291 290 291 289 285 290 285 285 289 288 287 290 292 290 284 288 294 289 291 293 293 295 291 286 291 291 290 286 293 294 290 293 290 293 294 297 296 293 295 292 291 284 294 292 288 290 293 294 295 294 293 291 291 292 292 293 292 292 293 294 295 293 294 294 292 290 295 298 297 299 299 300 299 298 299 299 300 299 298 297 297 297
298 300 299 292 288 288 290 288 287 286 284 284 283 286 289 288 288 290 290 294 291 289 292 290 293 293 293 293 293 293 295 295 294 294 296 297 291 297 291 292 298 291 294 293 291 293 293 288 291 288 285 285 292 292 292 293 292 291 289 289 289 289 290 290 289 292 293 291 292 292 288 287 294 297 298 298 298 297 297 298 298 299 299 298 297 297 297 297
297 301 302 296 287 292 286 287 288 285 280 283 288 287 287 289 292 292 284 290 293 294 294 294 294 291 290 291 292 294 297 298 299 300 301 302 301 299 298 300 298 295 293 294 292 290 290 288 283 284 285 282 288 290 289 288 289 286 285 287 289 288 289 290 291 293 295 295 291 288 290 294 295 297 295 295 296 297 297 298 298 298 298 298 297 296 296 297
Wind_Speed
11 11 10 11 11 11 11 11 11 11 11 11 12 13 12 13 13 14 14 13 14 14 14 15 15 16 16 16 18 19 16 8 12 7 5 14 5 17 10 8 6 8 7 3 3 0 1 1 1 2 0 1 2 1 4 3 2 1 2 4 6 6 6 2 3 2 3 5 6 8 5 1 6 4 3 11 13 14 13 12 10 14 13 13 16 16 15 15
11 11 11 11 11 11 11 11 11 11 12 12 12 13 13 13 13 14 14 14 15 14 14 14 15 16 16 16 18 16 13 8 9 10 19 5 12 15 16 17 15 11 8 3 5 3 2 2 4 2 2 1 1 3 1 2 3 4 2 4 10 5 3 1 2 7 4 8 12 8 4 1 3 5 1 9 5 14 14 9 14 15 14 14 15 15 15 15
12 12 11 11 12 11 11 11 11 11 12 12 13 13 13 13 13 13 13 13 14 15 14 14 15 15 17 16 17 16 10 8 5 10 18 17 24 18 16 16 15 8 11 4 4 4 5 2 0 2 2 1 2 5 0 4 0 4 4 6 9 1 2 3 3 6 8 10 12 6 7 6 5 3 0 8 8 16 16 11 11 17 15 13 13 13 13 14
12 11 12 12 11 12 11 12 11 12 12 12 13 13 14 14 14 13 13 14 14 13 13 14 15 15 16 17 17 11 5 5 4 7 5 12 23 24 20 17 15 10 9 3 3 4 1 2 2 2 1 3 3 3 2 5 1 3 4 7 3 2 3 4 3 4 8 13 10 2 3 9 10 2 6 10 11 6 8 14 18 18 18 17 14 14 13 14
13 12 12 12 12 12 12 12 12 12 12 13 13 14 14 14 14 14 13 13 13 13 14 14 15 15 17 17 18 6 6 3 3 2 3 5 10 17 21 19 12 10 10 3 1 2 2 1 0 0 2 3 2 0 4 4 5 2 5 5 4 6 5 9 6 7 7 10 0 4 7 4 5 6 10 12 12 9 12 10 17 19 19 19 17 13 12 12
14 13 13 13 13 12 12 12 12 12 12 13 13 14 14 14 14 14 14 13 13 13 13 14 15 16 16 18 12 4 1 2 2 3 6 8 7 15 17 15 12 8 6 3 3 0 1 1 4 1 2 3 4 5 3 7 3 5 7 4 5 6 6 4 3 4 5 5 3 4 3 1 4 3 0 6 12 7 3 11 15 17 16 15 15 14 12 11
14 14 14 13 12 12 12 13 12 12 12 13 13 13 14 14 14 14 14 13 13 13 13 14 14 16 16 14 8 1 2 9 5 6 9 9 3 12 12 10 8 6 5 4 3 3 3 2 3 4 1 2 5 5 8 1 3 7 9 3 6 7 10 10 8 5 6 9 3 2 3 5 5 4 3 5 4 12 11 10 12 15 16 16 15 12 12 14
15 15 14 14 13 13 12 12 12 12 12 12 12 13 13 13 14 14 13 13 13 13 13 13 13 14 14 8 5 1 1 8 13 4 8 6 4 11 15 8 7 5 5 8 6 6 3 3 6 2 3 5 3 6 4 5 5 8 9 8 6 4 6 7 6 6 7 3 4 4 6 2 1 1 4 6 10 14 15 14 14 14 14 14 15 15 15 15
17 15 14 14 14 14 12 12 12 12 12 12 12 12 13 13 13 13 13 13 13 12 12 12 13 12 12 2 1 3 8 11 3 7 7 6 4 8 11 5 5 7 5 3 4 4 4 5 5 5 5 5 6 8 4 3 5 5 10 6 5 5 6 5 4 5 7 2 1 4 5 2 5 11 9 5 10 12 13 14 14 14 14 14 13 16 16 15
17 16 15 15 14 14 13 12 12 12 12 13 12 13 13 13 13 13 13 13 12 12 11 11 11 11 8 4 3 2 9 6 4 9 11 7 6 3 4 5 9 8 5 5 4 4 6 6 8 4 3 7 5 7 1 4 6 2 3 7 10 10 7 4 5 3 4 2 3 2 4 4 4 6 2 2 11 14 14 14 12 14 14 11 12 14 15 16
17 18 16 15 14 14 14 13 12 12 12 12 13 12 13 14 13 14 13 12 12 11 10 10 9 7 5 4 1 9 6 1 4 8 12 10 6 4 6 7 8 7 10 5 8 10 10 6 2 1 1 5 4 5 0 3 1 5 6 5 5 7 7 2 1 1 1 2 2 5 2 4 3 5 10 10 8 15 17 14 13 13 12 12 15 15 13 12
19 15 18 16 15 14 14 14 13 12 13 12 12 12 13 14 14 14 13 12 12 11 10 10 11 4 4 4 6 12 2 3 8 10 11 9 7 5 8 5 9 10 10 8 9 9 10 8 0 0 4 4 2 2 8 6 4 6 6 5 6 5 5 5 5 3 4 2 4 3 2 3 3 5 13 13 11 12 17 15 14 13 14 15 15 14 12 12
16 17 17 17 16 15 14 14 14 13 13 13 12 11 12 14 14 14 13 13 11 11 11 10 7 3 4 6 14 17 16 15 14 14 13 5 7 8 7 7 10 10 12 10 7 8 8 6 1 2 5 2 3 3 4 4 5 3 1 4 3 3 3 8 2 3 6 3 5 6 3 6 5 6 12 14 12 11 16 14 13 13 13 14 15 13 12 10
15 15 18 17 17 16 15 14 14 14 13 13 12 11 12 14 14 14 14 13 13 12 10 10 3 3 4 8 9 4 6 7 11 15 15 7 6 11 9 8 10 10 8 9 8 5 6 4 4 5 1 3 4 4 9 4 4 3 3 1 2 1 3 4 2 4 4 4 6 5 5 6 5 6 12 13 14 15 15 13 12 12 13 13 13 14 11 8
17 16 16 16 16 17 15 14 14 14 13 13 12 11 11 14 14 14 14 12 12 10 11 9 2 3 3 10 9 16 21 11 9 16 15 7 7 9 9 8 11 11 10 10 3 4 6 5 3 4 3 3 5 5 8 3 2 2 3 4 2 3 4 7 4 4 5 1 6 5 4 7 4 10 14 13 12 15 16 12 12 12 13 14 11 12 12 10
18 15 15 15 16 17 17 15 14 14 13 12 12 11 13 15 15 14 14 12 12 12 5 2 2 4 3 10 5 6 3 4 8 15 11 10 8 10 10 3 4 7 7 5 6 2 4 4 4 4 3 4 3 2 3 5 5 2 4 4 2 3 5 4 3 4 8 2 1 9 5 1 1 7 11 11 13 15 16 13 12 15 16 14 13 11 11 11
18 17 14 14 15 17 16 15 14 13 12 11 9 11 14 15 16 15 12 12 7 5 4 2 1 6 2 5 4 4 4 7 5 1 3 9 12 13 5 3 3 4 10 5 6 5 2 4 2 2 3 5 3 3 3 5 4 5 1 4 3 4 2 2 5 3 4 5 3 5 4 4 1 12 8 11 15 16 15 13 13 14 12 13 13 12 11 10
16 17 16 16 13 15 15 16 15 13 11 8 6 8 11 16 17 13 8 4 4 5 5 4 3 2 12 4 8 4 2 4 2 5 7 3 12 9 6 3 3 2 7 4 3 3 2 2 3 5 2 5 5 5 8 9 7 5 1 1 3 1 3 6 4 3 4 5 8 1 5 9 4 4 15 13 15 17 16 14 13 13 13 13 12 11 11 9
16 16 16 16 12 14 14 14 14 12 9 6 7 10 15 17 8 1 2 2 2 1 1 4 5 6 1 2 5 7 5 4 3 4 4 6 3 6 4 3 3 1 4 5 2 7 1 1 3 3 11 9 10 9 8 6 7 7 5 4 4 5 4 4 6 4 7 5 9 5 6 9 4 3 9 8 11 15 12 13 11 11 12 12 11 10 9 9
16 15 15 16 14 15 13 11 11 12 8 3 3 3 3 2 1 1 1 5 7 7 2 4 12 7 14 11 3 1 6 6 2 5 4 4 4 4 3 2 2 2 3 8 3 9 4 8 10 13 9 8 5 7 7 8 6 5 4 4 6 6 6 3 3 4 4 4 9 7 5 2 2 5 18 11 10 12 15 14 11 10 11 12 12 11 10 10
16 15 15 15 13 11 12 9 8 9 4 0 1 1 3 4 2 2 1 7 12 13 14 10 13 15 14 6 7 12 12 9 2 2 6 4 3 6 4 4 2 4 3 6 6 2 6 8 12 6 6 7 7 6 7 7 7 7 4 4 7 3 8 5 5 5 5 6 6 3 7 9 4 4 11 13 14 11 13 14 14 16 14 13 15 12 11 10
15 16 16 15 11 9 10 9 7 7 4 2 2 4 2 2 3 2 3 5 7 14 14 15 11 14 16 16 13 5 6 6 16 11 6 11 5 9 1 5 3 7 3 4 5 4 11 13 6 6 5 6 5 7 8 8 6 6 6 4 2 7 2 4 3 4 6 6 5 7 13 8 9 10 10 12 13 8 6 11 15 19 17 13 12 12 12 11
14 14 16 14 9 8 10 9 8 8 1 3 6 8 9 2 3 3 4 7 11 8 12 13 12 16 21 13 6 2 7 8 7 8 4 9 7 11 6 7 6 4 3 6 11 7 7 9 6 7 6 6 6 7 7 8 6 6 3 3 9 4 2 4 4 5 5 7 3 13 14 7 7 11 12 7 11 11 9 12 14 12 13 14 12 10 10 11
12 12 15 13 8 6 6 7 6 3 5 5 7 12 7 3 4 7 7 3 6 9 7 9 13 14 17 8 2 13 11 6 6 11 7 9 10 9 5 9 6 5 10 9 8 8 5 2 7 6 8 9 8 7 9 8 10 6 6 4 7 5 5 4 4 2 7 3 18 15 11 5 4 12 10 10 12 14 12 14 13 12 13 13 12 11 9 11
10 10 12 12 6 5 6 3 2 6 2 3 10 15 11 10 6 5 5 4 5 6 8 10 7 8 13 3 4 1 6 7 12 7 2 9 11 10 10 4 5 12 10 8 7 6 8 5 11 9 8 10 9 9 12 10 8 8 5 9 12 7 3 2 3 1 0 4 7 16 6 2 4 5 14 9 8 10 10 13 12 12 11 12 12 11 11 10
8 8 11 8 7 6 5 3 4 2 5 6 5 6 4 7 7 6 4 1 6 3 4 5 9 10 9 7 9 7 0 6 8 11 8 8 9 9 5 9 6 12 12 9 9 4 4 5 13 13 11 9 9 9 7 9 9 6 7 11 14 8 3 1 6 2 4 9 10 4 11 3 1 6 8 9 11 10 9 11 11 10 10 10 9 9 10 11
8 8 10 9 7 5 3 4 1 2 2 5 4 7 6 2 6 7 2 2 4 7 10 7 9 2 6 11 12 10 2 8 3 6 8 9 13 8 10 6 6 4 6 3 1 9 8 10 12 12 11 11 9 11 9 11 7 9 4 10 10 5 4 7 5 7 5 1 1 1 6 9 5 8 5 8 12 11 10 9 10 9 11 10 9 10 11 10
6 6 6 7 6 8 3 3 6 2 3 7 10 10 9 7 4 7 1 1 2 4 5 5 6 2 2 12 14 11 5 2 5 6 11 10 11 12 10 10 11 10 9 7 13 1 10 9 12 13 11 10 13 9 6 9 9 4 5 6 5 6 7 8 9 5 4 5 2 4 4 8 2 4 8 8 12 9 8 9 10 10 11 11 10 11 11 10
3 2 4 5 3 5 5 3 4 6 3 8 11 9 8 11 3 5 2 1 3 2 3 6 3 1 3 12 12 10 8 0 2 5 9 14 13 5 10 7 6 9 8 10 6 4 7 9 12 12 10 12 6 6 10 10 9 8 5 5 4 4 4 7 7 7 2 2 6 8 10 8 3 4 10 5 6 10 8 8 9 10 11 11 10 10 10 9
2 2 3 3 2 1 1 1 3 7 8 9 9 9 9 4 5 1 2 3 2 2 4 0 6 5 7 11 8 12 8 2 4 2 6 11 10 5 4 3 5 10 8 6 7 7 6 7 7 9 12 8 7 9 12 12 10 1 6 5 2 2 3 4 4 4 4 5 9 12 10 9 5 9 11 11 11 15 10 7 9 10 11 11 10 11 9 8
3 4 6 4 1 1 0 2 2 2 2 6 9 8 5 2 2 2 3 5 2 1 2 3 6 6 10 13 10 10 9 4 3 3 4 7 7 5 5 7 2 4 6 5 9 7 4 11 9 4 7 7 10 9 8 10 9 7 4 5 3 5 2 2 1 2 5 6 6 8 8 10 10 7 9 4 3 8 14 16 15 14 13 11 10 10 9 9
6 7 5 3 3 2 0 2 2 5 5 8 7 4 1 6 6 4 4 5 3 1 1 4 3 6 10 6 7 11 8 3 5 1 6 7 7 8 10 9 8 6 8 10 8 4 9 9 7 6 7 13 9 8 8 7 9 10 6 3 9 2 3 4 1 4 6 6 3 8 6 4 2 0 2 4 7 10 1 7 14 16 15 13 12 11 9 8
5 6 7 4 4 1 3 5 4 2 5 6 6 1 2 2 6 5 5 6 2 5 3 1 4 9 8 9 10 9 6 5 3 2 6 6 6 9 4 6 6 6 6 3 4 7 7 5 6 9 7 10 10 11 7 8 10 9 10 6 7 5 5 5 2 1 1 5 4 8 4 3 1 2 4 8 8 12 9 11 13 13 14 13 12 10 9 9
7 6 2 2 3 3 4 4 4 3 4 5 2 1 1 1 3 4 6 4 5 9 7 4 2 7 11 8 8 8 6 7 3 3 4 7 7 8 9 9 9 8 2 5 7 10 7 10 13 12 8 10 11 12 10 4 4 8 3 8 7 6 4 4 3 7 7 6 1 5 5 3 6 1 5 10 10 10 11 10 10 10 11 11 9 10 10 10
8 5 3 3 2 5 6 6 1 5 3 4 2 1 4 5 2 2 2 6 6 8 11 13 4 10 9 5 6 8 4 4 6 2 4 9 10 7 10 11 6 5 4 6 4 3 14 8 5 7 2 9 11 9 9 7 4 4 4 6 5 10 7 2 6 6 4 3 1 6 2 2 3 2 6 10 12 12 13 12 11 11 9 9 9 8 8 8
6 3 1 2 2 2 6 4 5 3 2 3 2 3 4 4 1 4 2 7 7 8 14 12 0 6 7 5 5 7 10 1 4 3 2 8 9 8 7 5 9 8 7 7 3 4 5 7 3 7 8 8 10 8 7 10 8 5 6 11 9 6 8 4 1 1 4 7 2 2 5 4 4 4 6 12 12 11 13 12 12 12 10 10 8 7 7 7
4 4 2 2 2 3 4 6 6 4 3 3 2 2 3 4 3 4 4 10 11 12 5 6 4 4 6 6 5 11 8 3 2 5 3 3 6 10 9 8 6 8 6 8 2 3 7 5 4 6 11 9 6 11 8 13 7 5 9 9 4 4 6 6 4 1 1 7 2 1 6 7 7 4 5 9 12 10 10 11 12 12 10 10 8 7 7 7
4 3 6 6 9 4 6 7 4 3 3 2 2 3 1 3 3 6 7 11 11 9 6 1 4 4 9 6 7 11 8 9 3 4 3 5 2 7 7 6 7 8 9 5 2 3 2 1 4 7 8 7 2 7 4 6 4 11 10 5 5 2 7 2 5 3 2 2 2 0 7 4 5 4 8 10 13 11 11 11 12 12 11 10 9 9 8 7
3 2 4 6 1 7 7 8 3 2 2 1 1 4 2 4 5 9 9 10 10 9 4 1 2 3 1 3 5 8 10 9 5 4 3 3 3 9 10 6 6 10 8 8 6 2 1 3 3 3 10 6 5 6 8 9 2 2 4 4 3 5 4 3 5 4 7 3 4 3 7 3 5 7 13 12 12 13 13 11 12 12 11 10 10 9 8 7
2 2 1 4 5 7 8 7 3 2 1 1 1 2 3 7 8 8 9 11 7 4 1 3 2 3 2 1 1 5 8 10 7 3 3 2 5 4 11 11 5 11 14 8 5 2 3 2 2 3 3 8 9 5 10 9 6 2 3 0 1 1 2 5 1 5 5 6 4 5 4 4 3 6 13 14 14 14 14 12 11 10 11 10 10 9 8 7
2 1 2 2 5 8 5 2 1 1 1 3 4 4 4 4 6 10 13 13 9 7 7 4 2 1 1 4 3 0 4 8 7 4 4 4 8 3 8 8 8 7 10 9 6 1 1 1 8 3 1 9 5 6 5 8 8 7 7 5 5 4 4 6 6 2 4 7 5 5 4 2 2 1 9 13 13 13 12 12 11 10 11 10 8 7 8 7
1 2 1 1 4 10 5 4 1 1 1 3 2 2 4 5 6 11 12 10 10 7 5 4 6 6 4 5 1 2 2 5 6 5 2 6 6 5 7 12 11 7 7 8 10 4 5 2 3 2 3 6 4 4 6 10 6 7 8 4 6 3 5 4 4 4 4 2 5 3 7 3 3 1 7 11 11 12 12 12 11 11 12 10 8 8 6 5
1 0 2 2 4 9 1 1 1 2 3 3 4 8 8 8 8 9 12 10 8 8 2 2 4 1 2 2 2 2 0 0 6 5 4 7 9 15 6 15 11 11 6 3 6 4 7 2 2 3 3 4 4 6 0 7 8 3 0 3 5 3 5 7 5 5 7 4 3 1 3 1 1 2 10 12 12 11 10 13 14 11 10 10 10 9 7 7
2 2 2 0 3 3 2 1 0 2 4 7 8 10 8 8 9 11 9 9 4 5 3 2 2 1 3 1 2 2 1 1 0 7 5 4 6 15 10 11 14 10 8 6 7 5 3 2 6 2 0 2 4 5 3 3 1 2 3 3 4 4 3 1 4 2 5 6 9 9 5 4 0 6 12 14 13 14 12 10 15 13 9 9 9 6 5 9
1 1 1 2 3 3 3 1 3 1 2 5 5 8 8 6 5 9 9 11 8 8 5 1 1 2 2 1 3 4 0 1 1 1 2 3 4 7 16 10 17 10 9 8 8 7 3 2 5 3 6 5 5 6 6 4 6 2 1 4 5 7 5 2 3 2 5 1 4 5 4 1 4 10 15 15 15 13 12 11 8 12 13 11 9 6 7 8
2 2 3 2 1 2 3 2 3 4 7 7 5 7 6 5 5 8 8 10 12 9 3 2 2 4 2 3 3 1 2 2 1 1 2 2 2 5 11 13 15 11 9 14 9 8 3 2 3 5 6 6 7 4 3 4 3 5 5 6 3 4 6 5 5 3 6 4 4 2 12 13 11 14 15 16 16 16 14 13 13 11 10 8 7 7 8 9
1 2 1 2 2 3 6 3 5 4 4 2 2 3 5 8 6 6 2 2 2 3 3 1 2 1 2 2 2 2 2 2 4 2 5 3 6 2 9 14 13 16 14 11 12 6 3 3 4 8 3 6 5 1 1 3 2 2 4 6 4 6 4 7 7 7 6 10 1 0 18 19 14 13 15 16 16 16 14 14 14 12 12 10 9 10 11 12
1 1 1 2 1 3 4 7 9 10 10 6 6 4 9 9 3 2 5 3 6 1 3 5 3 3 3 3 2 1 5 2 3 3 5 2 4 4 6 5 6 13 12 6 12 5 7 5 6 7 4 5 1 3 4 5 4 3 3 2 7 4 6 5 5 5 12 7 8 12 15 20 17 17 17 17 17 17 17 16 15 14 12 12 13 14 13 12
1 1 2 1 0 3 5 6 4 7 9 9 4 4 4 3 4 2 2 5 6 4 2 0 3 7 10 8 2 0 2 3 4 2 2 5 4 4 5 6 7 8 4 5 6 4 6 2 2 8 6 8 5 2 7 12 4 10 10 9 4 6 4 7 4 2 3 4 14 21 9 7 7 10 10 11 11 14 13 12 13 13 13 13 14 14 13 12
2 3 2 2 4 5 5 3 3 1 2 3 1 3 2 2 2 6 3 3 3 4 4 2 6 9 9 5 3 3 1 2 2 1 2 1 4 6 1 2 4 5 5 4 4 2 8 2 6 4 5 3 5 4 8 12 12 8 9 10 9 7 11 6 7 10 19 14 16 16 17 11 2 9 11 10 10 10 12 13 13 13 12 14 14 13 12 12
3 3 2 4 5 4 2 2 3 3 2 3 1 4 2 2 1 2 4 2 3 3 2 3 5 8 5 3 2 1 1 2 2 2 2 2 5 2 2 4 2 3 4 3 2 1 7 2 2 4 6 2 4 6 5 13 14 12 7 10 9 6 9 1 6 2 9 13 16 16 13 6 7 11 11 11 11 13 14 13 11 10 10 13 14 13 13 12
3 3 3 2 3 3 2 3 3 2 2 1 1 1 2 3 3 4 4 5 2 5 5 5 5 3 6 3 2 2 2 2 3 3 2 1 1 3 3 1 4 2 2 0 1 3 4 6 5 6 8 1 1 5 5 4 9 6 4 3 3 3 1 4 6 6 10 23 15 14 12 11 17 16 16 12 13 12 13 13 12 10 12 13 12 13 12 11
Wind_Direction
308 311 311 311 315 315 317 317 318 319 322 320 322 320 320 323 322 318 316 313 309 313 315 316 322 320 321 325 326 327 332 329 312 307 250 239 202 234 231 222 220 211 195 209 267 280 288 201 226 270 349 101 255 192 229 195 182 155 211 195 243 220 245 205 253 248 295 302 304 333 339 350 102 97 134 68 65 89 84 76 64 54 66 101 116 121 127 124
304 304 308 309 308 311 311 313 312 316 316 319 320 320 324 323 319 318 318 319 316 311 313 316 315 321 324 327 326 330 335 306 290 278 240 202 214 225 233 241 251 262 141 205 217 196 153 217 228 175 137 248 231 224 161 263 161 169 212 169 235 204 229 179 247 285 343 298 307 286 333 63 12 140 193 86 93 100 85 76 90 82 83 95 109 121 124 121
299 301 301 304 304 305 306 307 310 311 315 317 316 320 318 316 317 318 319 318 319 325 321 317 321 321 324 326 324 336 326 312 276 256 266 210 232 225 225 233 238 212 170 173 215 184 183 174 217 138 200 182 269 237 213 257 166 220 179 228 236 230 265 255 287 291 289 288 293 318 326 45 319 102 122 115 133 110 117 118 97 113 119 118 122 125 124 118
291 292 294 296 300 299 302 304 305 309 314 313 316 317 315 313 312 316 317 317 316 316 319 320 320 322 323 324 327 328 336 267 268 246 247 216 211 212 216 222 228 198 190 197 156 168 168 1 8 147 288 193 277 221 259 251 188 261 165 223 235 226 284 266 247 273 293 294 287 307 324 20 338 7 115 133 92 93 136 146 142 143 137 134 134 131 128 121
284 286 287 288 292 295 296 300 302 307 309 313 315 313 314 312 312 311 313 313 313 317 320 318 321 324 325 326 322 335 307 351 269 221 257 306 221 209 207 209 206 178 179 151 183 287 271 225 91 269 191 240 245 342 240 256 221 309 222 214 210 271 283 263 259 269 270 276 269 320 32 318 302 50 125 139 134 179 173 176 142 140 139 137 136 134 126 125
280 279 281 283 284 290 292 294 300 305 308 312 311 312 310 311 312 312 312 311 312 315 317 321 322 326 329 328 314 285 248 152 289 305 341 318 216 192 203 197 184 160 159 175 154 70 150 210 151 190 211 195 223 185 254 217 184 246 276 274 237 229 234 272 250 247 288 311 34 344 314 310 18 116 9 173 156 173 118 136 135 131 131 128 126 128 123 109
272 273 275 276 279 280 288 290 296 301 306 308 310 311 310 308 309 310 312 317 318 315 316 320 324 327 332 328 292 164 224 280 334 265 4 354 205 159 164 165 154 143 149 178 186 195 190 175 153 207 171 239 254 205 234 274 202 219 252 243 250 228 235 253 268 296 265 271 295 251 354 27 358 49 318 103 87 102 103 113 116 119 122 124 121 121 106 112
276 275 273 273 275 276 279 284 290 298 302 304 307 310 309 308 308 311 312 313 317 317 320 321 324 330 338 339 336 228 258 255 248 311 1 4 100 138 134 135 151 139 154 198 176 198 175 180 200 166 199 192 219 186 223 220 221 227 248 242 246 213 227 236 240 245 251 280 297 21 341 3 109 123 73 69 107 114 121 121 117 117 116 115 117 106 106 107
278 274 271 268 267 270 273 282 287 291 297 299 303 305 308 308 308 311 311 312 312 315 318 324 328 334 348 287 286 348 242 235 47 11 357 353 43 116 127 135 159 163 199 187 191 192 142 239 204 187 221 208 249 259 249 197 291 224 229 242 259 252 238 220 229 218 235 228 287 331 311 17 111 74 44 96 105 112 115 114 117 116 117 118 108 108 109 112
289 280 270 266 266 266 268 268 278 287 289 294 300 305 307 307 306 307 309 310 310 310 313 321 324 348 340 341 291 229 258 259 29 18 12 15 360 121 170 137 159 178 184 215 188 166 195 214 186 185 220 286 256 253 221 160 231 225 226 219 232 246 249 247 228 254 223 261 149 168 307 299 139 93 65 74 130 126 117 116 120 120 119 114 103 106 110 115
269 274 275 265 262 261 262 265 273 280 282 289 297 304 304 304 304 302 304 305 308 309 312 316 327 343 349 358 325 222 256 125 40 3 352 348 343 300 201 173 174 175 194 204 206 193 222 232 230 10 303 236 302 289 282 220 302 291 276 314 292 273 261 227 337 258 174 304 170 123 221 288 353 108 150 153 157 134 124 123 124 121 116 103 99 101 104 104
280 270 272 267 261 258 258 262 268 269 274 284 294 300 301 302 301 300 301 302 304 303 307 321 326 329 300 281 230 223 12 20 337 331 321 331 310 268 292 257 180 183 178 196 218 211 216 230 185 82 208 28 282 280 281 262 231 248 245 264 271 315 299 259 223 226 180 255 200 119 17 334 343 153 150 150 149 139 124 125 126 121 109 102 102 104 107 114
291 273 272 277 263 258 256 260 262 269 274 280 288 296 297 298 298 300 302 302 299 301 307 310 315 298 308 284 238 251 292 300 312 313 308 303 299 284 268 262 217 185 183 188 215 214 211 219 167 204 254 298 256 255 280 323 280 280 196 193 308 358 315 268 205 165 175 227 182 104 253 270 262 169 160 150 145 135 120 125 128 119 111 108 108 105 106 121
293 276 257 264 272 258 255 253 260 263 270 275 283 295 295 292 293 296 298 297 302 302 301 301 311 253 247 255 273 288 282 290 300 305 282 292 305 294 305 281 222 213 189 195 215 195 203 209 176 232 290 237 270 321 321 326 336 285 245 69 182 7 272 277 200 139 166 211 159 123 203 276 270 182 167 159 148 138 126 129 124 114 111 109 111 112 107 87
297 291 278 263 267 266 252 251 252 258 264 277 283 288 292 291 291 293 294 296 296 301 302 313 306 341 256 268 269 264 249 256 271 257 257 266 265 305 279 267 224 210 202 203 206 192 200 192 176 238 253 219 240 275 290 310 304 311 343 276 312 144 275 290 299 144 195 277 136 122 229 233 237 181 168 162 147 129 125 130 121 116 114 113 107 104 105 105
299 296 284 271 265 269 256 251 253 256 259 268 283 291 288 285 287 288 289 289 292 289 295 300 228 181 314 280 251 320 266 151 237 232 243 199 219 223 247 301 293 225 206 227 232 207 192 169 197 187 248 279 259 234 305 343 322 334 183 271 259 137 240 332 292 195 200 162 117 169 214 305 300 188 168 154 141 132 130 134 131 121 118 115 112 109 111 112
302 298 289 271 261 264 272 257 256 257 264 272 288 291 288 285 284 282 284 290 292 275 206 242 152 173 185 234 322 288 229 212 239 247 210 193 194 215 240 289 277 227 193 204 199 200 191 173 163 215 199 221 162 170 236 270 282 285 6 200 208 177 237 246 292 310 209 177 227 226 199 223 83 159 179 160 144 136 133 139 131 126 122 114 111 110 112 113
299 299 293 278 261 271 279 271 255 258 266 287 297 292 287 288 283 281 277 257 252 247 226 221 258 269 267 259 280 214 359 277 188 217 243 171 191 208 207 233 269 250 172 207 226 191 155 205 161 214 215 209 181 178 172 216 191 218 227 195 292 270 184 205 181 263 139 217 215 201 204 249 119 164 165 167 154 141 142 138 130 125 112 108 108 110 109 107
297 294 290 291 280 255 256 264 262 257 264 287 314 304 290 281 282 209 220 188 139 32 314 211 166 165 217 234 253 316 289 259 263 197 228 195 179 190 193 203 266 334 186 169 251 181 157 165 156 188 216 202 207 191 188 198 181 204 175 187 188 196 235 211 231 274 163 203 222 172 207 235 194 102 158 153 146 133 115 105 113 104 102 100 100 101 103 102
301 297 294 287 273 260 251 252 261 258 269 345 3 320 341 21 6 335 159 199 223 223 233 162 208 285 317 285 211 200 302 250 292 217 234 194 150 168 203 167 235 183 186 190 178 201 120 189 200 209 207 210 202 179 177 210 190 205 192 196 228 210 246 234 234 235 195 172 213 204 219 349 31 124 163 137 102 94 112 121 114 108 107 107 107 107 105 99
300 294 288 282 279 269 253 249 258 264 264 109 288 316 247 192 162 260 287 222 223 233 250 245 204 223 238 291 327 360 3 320 242 277 212 172 187 118 215 131 182 217 210 181 171 195 156 209 224 200 190 201 202 170 186 218 228 218 213 199 244 233 235 231 218 228 212 177 244 180 69 30 359 102 111 94 93 104 122 121 114 113 112 110 109 105 99 105
296 295 287 276 277 273 263 253 243 245 230 165 203 241 237 231 61 39 301 296 240 228 237 245 241 255 256 260 272 319 299 279 301 277 258 171 191 169 225 165 156 200 163 186 176 181 205 216 196 190 195 191 199 180 188 203 224 231 205 217 277 255 243 313 269 261 225 191 238 98 79 34 31 49 65 95 101 101 98 112 122 122 116 106 103 100 104 100
293 288 283 277 276 262 247 232 227 239 187 176 227 243 259 272 313 317 310 274 282 243 223 229 241 248 261 262 251 194 268 248 255 280 229 182 167 197 146 183 183 185 202 189 193 178 204 233 192 185 183 185 215 191 192 219 232 219 213 185 226 231 160 295 305 235 217 186 134 105 92 64 40 61 72 60 106 111 105 110 111 108 109 110 107 106 104 99
295 291 288 277 270 240 237 244 245 216 211 212 238 238 232 303 331 346 344 270 296 281 228 218 215 235 246 229 182 177 210 247 219 254 245 188 186 168 197 185 177 193 217 206 204 195 213 122 170 184 191 190 199 200 194 203 232 228 193 195 239 240 209 168 248 263 211 57 112 96 76 57 12 107 85 91 92 98 97 89 80 79 88 95 94 89 90 94
296 299 283 270 248 216 217 214 181 225 136 197 242 249 251 257 263 265 289 292 250 262 208 238 189 240 238 163 230 310 197 245 239 252 226 194 170 167 207 163 178 211 207 204 208 208 227 220 169 194 201 196 191 195 200 187 224 243 223 198 230 229 217 202 282 350 140 135 161 127 48 345 311 115 126 124 95 84 95 95 96 97 94 93 92 98 94 87
284 276 278 262 226 193 197 192 248 141 158 221 224 259 234 224 224 219 221 276 284 243 96 234 138 255 152 212 141 210 343 277 219 228 231 209 180 179 156 205 189 202 202 196 207 216 187 214 179 192 199 202 201 205 200 170 212 207 243 192 226 222 186 236 269 84 176 179 227 164 139 204 243 159 137 124 114 110 104 102 108 103 104 101 105 104 103 105
286 274 256 242 204 173 166 238 1 173 177 256 209 265 283 283 192 171 200 261 286 202 178 149 168 282 152 156 163 142 119 252 192 200 218 210 183 178 182 193 166 222 187 174 162 218 180 204 189 185 195 201 203 208 208 182 177 228 173 181 211 191 187 234 241 227 232 306 267 100 146 140 179 188 186 146 127 126 113 112 110 107 108 108 108 108 109 105
286 281 250 228 204 170 223 345 339 285 255 329 344 331 322 299 245 159 267 74 274 130 145 180 222 184 220 159 160 175 215 218 151 206 199 196 177 177 197 188 183 179 179 193 207 57 168 195 192 189 196 204 212 203 198 181 197 219 221 195 197 171 195 216 221 220 211 128 260 130 132 89 187 170 164 148 124 125 121 121 117 111 109 110 111 110 108 105
296 286 234 225 246 239 262 288 315 284 325 339 322 316 322 306 213 153 163 123 238 139 79 144 133 129 118 145 161 192 246 96 188 175 184 182 200 159 192 187 169 188 204 202 180 182 195 194 193 192 195 214 203 194 211 197 208 241 221 206 194 174 183 205 224 220 266 130 207 188 176 110 194 208 163 176 154 150 142 130 125 122 117 115 114 110 102 99
307 259 247 251 302 338 306 231 249 280 308 303 306 314 315 329 126 242 74 268 238 234 171 31 185 187 152 149 154 201 228 270 265 126 157 170 174 146 189 134 168 186 212 209 201 203 183 196 192 201 202 201 191 211 207 210 212 204 199 227 218 73 178 233 195 138 78 224 226 190 192 129 168 208 187 176 190 165 143 137 131 126 119 117 116 112 107 103
304 270 245 250 96 245 204 281 235 356 19 328 326 321 325 9 186 168 164 245 291 49 61 140 170 138 151 157 158 204 216 246 273 188 131 162 176 167 144 194 213 177 205 206 215 229 222 191 212 202 181 198 195 212 216 206 208 214 207 192 208 295 11 242 318 48 191 246 263 193 193 169 166 204 208 226 73 173 160 153 146 139 134 130 126 118 112 108
319 300 272 251 257 317 230 275 347 9 8 339 329 6 243 139 358 203 207 348 42 313 152 199 179 149 157 159 173 179 186 215 266 189 164 173 163 184 190 188 165 151 199 195 215 201 236 224 211 207 189 188 194 207 224 208 206 205 214 142 161 251 146 256 186 212 207 196 246 159 143 71 17 49 206 209 155 166 135 129 140 137 136 132 128 122 116 112
339 323 324 302 283 221 252 264 300 13 6 341 331 247 132 155 196 234 266 322 60 355 333 260 165 156 162 154 201 186 184 212 193 247 158 177 142 204 209 186 177 152 174 178 138 177 245 254 206 212 204 203 187 192 191 213 210 194 201 168 146 164 179 205 240 192 282 273 257 161 102 68 81 88 47 139 147 139 127 128 129 130 131 129 126 121 117 112
343 343 334 278 271 246 251 262 271 25 2 330 315 333 50 173 252 167 226 340 312 328 328 1 143 155 158 179 191 174 184 237 127 216 189 179 176 183 211 221 164 177 119 154 177 184 180 222 235 190 210 183 197 200 188 183 166 204 145 150 174 146 159 189 187 174 190 202 160 0 161 240 150 268 89 117 116 107 115 116 113 111 112 114 119 116 115 115
327 305 262 275 245 242 232 242 275 46 22 336 248 173 181 202 315 4 63 348 338 326 331 316 237 158 161 182 186 198 181 199 218 214 210 173 198 192 193 207 194 136 140 132 223 140 210 237 275 202 251 177 203 196 174 164 165 212 163 87 142 208 133 137 197 150 194 154 92 12 91 320 55 33 97 98 100 107 118 114 112 114 116 116 112 115 117 118
336 292 205 241 218 233 203 191 103 56 304 277 195 172 218 228 247 20 343 330 315 334 328 329 95 143 151 173 182 196 216 106 209 173 275 193 184 193 198 202 197 183 157 185 197 184 178 232 237 172 225 194 196 163 193 163 198 221 137 206 211 127 118 110 43 153 88 76 2 159 109 88 113 63 96 109 108 117 122 126 125 127 126 118 117 118 117 119
351 320 343 249 230 204 180 135 119 148 223 251 191 201 237 298 350 332 316 322 308 313 315 355 188 151 156 182 170 187 198 189 264 158 256 158 179 196 193 215 176 179 192 151 259 188 151 238 263 181 211 242 199 174 177 185 156 143 197 213 102 132 116 126 185 270 48 166 202 201 148 162 162 176 156 122 123 132 133 138 130 129 125 124 122 116 116 111
333 312 289 264 241 203 132 107 125 208 227 222 179 254 322 292 12 313 307 305 311 322 302 258 280 6 172 148 187 178 178 174 212 160 234 202 278 189 181 201 195 190 192 182 129 259 135 304 241 201 212 212 220 156 175 218 166 177 202 146 147 167 246 301 107 176 166 139 122 176 155 185 195 142 148 155 147 148 144 138 135 138 135 128 122 117 113 112
327 311 330 299 212 137 110 122 189 197 252 98 216 245 313 263 293 293 305 299 293 306 324 272 323 325 43 162 172 184 164 187 168 195 165 216 187 196 198 181 204 201 197 172 213 249 73 162 291 265 205 198 189 147 198 201 342 86 109 148 164 131 197 127 193 174 115 161 130 168 176 236 190 166 172 165 156 150 147 150 147 144 135 128 127 125 127 124
288 345 313 355 84 91 119 145 177 188 229 168 183 260 316 300 290 299 302 315 322 334 260 293 333 324 322 254 191 167 174 183 162 228 173 186 207 212 201 183 194 195 205 178 209 159 265 132 231 271 253 168 216 190 200 183 155 68 103 195 202 163 229 115 89 135 156 158 168 139 188 234 233 185 167 163 164 158 156 151 144 138 131 127 126 130 129 125
180 157 336 50 75 74 30 154 124 163 187 288 281 283 287 278 305 294 293 292 287 258 257 274 289 240 299 349 333 73 171 180 177 189 177 195 180 157 233 192 181 195 196 207 223 179 169 187 203 298 161 196 219 228 165 166 172 161 155 181 168 114 117 161 249 8 101 109 167 154 218 264 216 191 170 156 158 150 151 143 140 128 117 117 119 123 131 133
355 54 31 335 115 134 166 111 202 174 264 233 217 200 265 277 276 281 292 295 281 286 229 250 264 241 252 244 254 332 109 177 184 177 188 170 203 193 213 210 188 186 168 192 201 207 160 153 116 221 211 208 214 235 185 149 137 160 145 211 164 145 119 122 167 254 52 40 98 132 125 229 129 169 147 144 144 146 142 133 119 114 119 120 126 130 121 120
40 190 263 180 187 163 172 35 167 204 244 250 290 280 272 268 263 277 285 298 316 279 196 221 237 248 294 23 311 321 38 235 181 189 185 187 205 210 200 198 195 197 161 184 164 211 95 97 105 263 298 290 313 329 125 143 130 103 128 108 101 164 189 171 160 183 124 153 81 19 81 235 196 153 136 132 135 129 124 126 122 122 125 129 136 138 135 104
6 15 17 68 88 127 241 99 209 244 260 275 276 273 269 266 271 278 278 285 281 309 279 213 300 131 246 263 273 262 210 58 21 174 224 194 216 216 220 201 187 204 175 203 166 201 173 265 134 158 8 340 347 343 357 352 129 142 176 196 159 124 107 197 115 118 122 210 171 133 180 218 308 139 127 127 122 123 123 128 126 124 128 134 134 128 107 110
272 253 43 328 17 66 211 299 334 323 297 299 301 290 289 275 243 262 269 273 261 250 262 286 264 258 283 255 248 268 305 157 213 272 184 217 243 207 207 200 191 205 191 177 168 152 119 198 110 142 164 168 191 188 207 245 218 259 169 136 159 166 152 112 189 153 146 227 127 118 116 93 92 123 125 127 125 123 129 129 124 132 141 142 137 122 118 114
353 75 324 8 26 32 293 289 294 299 303 299 304 277 264 260 265 246 260 271 258 256 236 230 263 245 266 350 340 334 353 334 105 303 30 329 289 203 193 190 189 202 180 169 154 126 146 168 119 147 154 197 204 214 233 128 126 185 208 166 172 165 165 138 117 107 172 185 91 219 144 135 140 140 136 140 138 138 138 137 134 133 132 124 115 118 116 107
325 104 160 175 36 244 263 272 258 228 240 215 251 297 275 298 302 307 215 277 328 4 314 137 230 4 296 26 324 327 312 354 8 83 7 305 263 255 170 183 188 195 175 168 157 101 100 143 168 113 129 213 188 188 323 97 136 219 174 190 152 122 160 147 148 208 169 102 291 94 147 137 163 152 148 146 144 140 142 141 141 140 140 135 127 116 110 103
67 270 295 224 192 206 217 260 236 243 252 263 263 270 277 283 314 307 291 263 308 346 53 325 10 332 297 277 240 25 328 32 12 29 325 283 350 327 34 337 185 188 170 167 165 141 143 163 196 103 359 39 128 185 137 69 50 47 16 260 192 141 125 163 209 174 147 165 181 168 165 147 166 169 161 157 152 148 145 146 146 143 136 133 128 122 116 113
195 251 250 277 226 240 182 244 236 227 241 226 249 242 268 255 287 335 331 333 348 331 31 334 314 348 351 336 74 110 354 53 337 337 26 319 19 331 38 338 350 6 184 149 176 146 99 143 145 109 90 40 1 31 96 101 77 49 25 19 360 90 127 125 75 45 153 169 144 150 127 85 131 140 140 138 136 133 136 138 137 137 142 135 128 125 123 119
5 344 321 296 255 284 281 279 260 222 261 265 273 268 265 314 345 336 346 36 344 302 333 28 334 343 341 344 55 89 335 139 129 11 298 56 335 29 65 147 288 324 22 152 157 312 105 265 152 109 74 35 347 36 80 96 96 70 30 26 26 77 74 85 107 97 86 80 115 121 119 112 61 112 117 121 126 127 129 141 144 141 139 134 129 125 121 117
307 283 282 320 312 260 268 331 330 312 307 317 168 281 1 320 90 335 291 232 207 252 336 298 323 334 351 340 68 128 211 156 171 174 210 88 84 329 110 301 323 301 10 359 25 325 86 181 57 93 88 46 338 28 70 93 85 86 44 17 10 4 99 104 107 179 118 135 126 117 117 138 145 126 117 122 132 137 141 143 145 143 133 133 134 131 128 124
306 264 258 261 280 307 331 301 296 33 303 235 289 284 360 305 337 10 339 299 261 241 258 303 316 17 310 8 319 274 263 177 187 206 176 175 171 91 86 327 345 82 36 105 299 94 117 123 92 109 92 213 285 5 351 35 75 35 354 343 357 43 55 87 56 35 143 135 129 152 192 151 146 142 133 139 139 144 146 154 150 137 136 139 134 129 125 122